When you browse on this site, cookies collect data to enhance your experience and personalize the content and advertising you see.
Visit our Privacy Policy to learn more. By continuing to use the site, you agree to this use of cookies and data.
EN

Hourly Weather Dżambi

Today, 10 August, Monday

Time Temperature Precipitation Wind Pressure Humidity
00:00 +26°C° 0 mm 1 mps 755 mmHg 96%
01:00 +26°C° 0 mm 1 mps 756 mmHg 95%
02:00 +26°C° 0 mm 1 mps 755 mmHg 96%
03:00 +26°C° 0 mm 1 mps 755 mmHg 97%
04:00 +25°C° 0 mm 1 mps 755 mmHg 97%
05:00 +26°C° 0 mm 1 mps 755 mmHg 96%
06:00 +26°C° 0 mm 1 mps 756 mmHg 96%
07:00 +26°C° 0 mm 1 mps 756 mmHg 96%
08:00 +28°C° 0 mm 1 mps 756 mmHg 86%
09:00 +30°C° 0 mm 1 mps 757 mmHg 77%
10:00 +32°C° 0 mm 2 mps 757 mmHg 67%
11:00 +33°C° 0.1 mm 1 mps 756 mmHg 64%
12:00 +34°C° 0.1 mm 1 mps 755 mmHg 60%
13:00 +35°C° 0 mm 1 mps 755 mmHg 56%
14:00 +34°C° 0.8 mm 1 mps 754 mmHg 64%
15:00 +33°C° 0.8 mm 1 mps 754 mmHg 71%
16:00 +30°C° 0.8 mm 0 mps 753 mmHg 78%
17:00 +29°C° 0.5 mm 0 mps 754 mmHg 82%
18:00 +27°C° 0.5 mm 0 mps 754 mmHg 86%
19:00 +26°C° 0.5 mm 0 mps 755 mmHg 91%
20:00 +26°C° 0 mm 0 mps 755 mmHg 91%
21:00 +25°C° 0 mm 0 mps 756 mmHg 92%
22:00 +25°C° 0 mm 0 mps 756 mmHg 93%
23:00 +25°C° 0.3 mm 0 mps 756 mmHg 94%

Tomorrow, 11 August, Tuesday

Time Temperature Precipitation Wind Pressure Humidity
00:00 +24°C° 0.3 mm 0 mps 756 mmHg 95%
01:00 +24°C° 0.3 mm 0 mps 756 mmHg 96%
02:00 +24°C° 0.1 mm 0 mps 756 mmHg 96%
03:00 +26°C° 0.1 mm 1 mps 755 mmHg 97%
04:00 +26°C° 0.1 mm 1 mps 755 mmHg 97%
05:00 +26°C° 0.6 mm 1 mps 756 mmHg 97%
06:00 +26°C° 0.6 mm 1 mps 756 mmHg 97%
07:00 +26°C° 0.6 mm 1 mps 757 mmHg 96%
08:00 +28°C° 0.1 mm 1 mps 757 mmHg 88%
09:00 +30°C° 0.1 mm 1 mps 757 mmHg 79%
10:00 +32°C° 0.1 mm 2 mps 757 mmHg 71%
11:00 +34°C° 0.2 mm 2 mps 757 mmHg 65%
12:00 +35°C° 0.2 mm 2 mps 756 mmHg 59%
13:00 +36°C° 0.2 mm 2 mps 755 mmHg 54%
14:00 +35°C° 0.1 mm 1 mps 755 mmHg 53%
15:00 +35°C° 0.1 mm 1 mps 754 mmHg 51%
16:00 +35°C° 0.1 mm 1 mps 754 mmHg 50%
17:00 +33°C° 0 mm 1 mps 754 mmHg 57%
18:00 +29°C° 0 mm 0 mps 754 mmHg 64%
19:00 +28°C° 0 mm 0 mps 755 mmHg 71%
20:00 +29°C° 0 mm 1 mps 755 mmHg 74%
21:00 +28°C° 0 mm 1 mps 756 mmHg 76%
22:00 +28°C° 0 mm 1 mps 757 mmHg 79%
23:00 +27°C° 0 mm 1 mps 757 mmHg 82%

Day after tomorrow, 12 August, Wednesday

Time Temperature Precipitation Wind Pressure Humidity
00:00 +27°C° 0 mm 1 mps 757 mmHg 84%
01:00 +25°C° 0 mm 0 mps 757 mmHg 86%
02:00 +26°C° 0 mm 1 mps 756 mmHg 88%
03:00 +26°C° 0 mm 1 mps 756 mmHg 90%
04:00 +26°C° 0 mm 1 mps 755 mmHg 92%
05:00 +26°C° 0 mm 1 mps 756 mmHg 92%
06:00 +24°C° 0 mm 0 mps 756 mmHg 91%
07:00 +24°C° 0 mm 0 mps 757 mmHg 90%
08:00 +28°C° 0 mm 1 mps 757 mmHg 81%
09:00 +30°C° 0 mm 1 mps 757 mmHg 72%
10:00 +32°C° 0 mm 2 mps 757 mmHg 63%
11:00 +35°C° 0 mm 2 mps 756 mmHg 58%
12:00 +36°C° 0 mm 2 mps 756 mmHg 53%
13:00 +37°C° 0 mm 2 mps 755 mmHg 48%
14:00 +36°C° 0 mm 1 mps 754 mmHg 48%
15:00 +36°C° 0 mm 1 mps 754 mmHg 48%
16:00 +36°C° 0 mm 1 mps 753 mmHg 48%
17:00 +33°C° 0.7 mm 1 mps 754 mmHg 59%
18:00 +31°C° 0.7 mm 1 mps 754 mmHg 70%
19:00 +29°C° 0.7 mm 1 mps 755 mmHg 81%
20:00 +28°C° 0.5 mm 1 mps 756 mmHg 85%
21:00 +27°C° 0.5 mm 1 mps 756 mmHg 89%
22:00 +27°C° 0.5 mm 1 mps 757 mmHg 93%
23:00 +27°C° 0.4 mm 1 mps 757 mmHg 94%

13 August, Thursday

Time Temperature Precipitation Wind Pressure Humidity
00:00 +26°C° 0.4 mm 1 mps 757 mmHg 95%
01:00 +24°C° 0.4 mm 0 mps 756 mmHg 96%
02:00 +24°C° 0.5 mm 0 mps 756 mmHg 97%
03:00 +26°C° 0.5 mm 1 mps 756 mmHg 97%
04:00 +26°C° 0.5 mm 1 mps 755 mmHg 98%
05:00 +26°C° 0.1 mm 1 mps 756 mmHg 97%
06:00 +26°C° 0.1 mm 1 mps 756 mmHg 97%
07:00 +26°C° 0.1 mm 1 mps 756 mmHg 97%
08:00 +27°C° 0 mm 1 mps 757 mmHg 92%
09:00 +28°C° 0 mm 1 mps 757 mmHg 88%
10:00 +29°C° 0 mm 1 mps 757 mmHg 84%
11:00 +30°C° 0 mm 1 mps 756 mmHg 78%
12:00 +31°C° 0 mm 2 mps 756 mmHg 72%
13:00 +32°C° 0 mm 2 mps 755 mmHg 66%
14:00 +31°C° 0.1 mm 2 mps 754 mmHg 69%
15:00 +30°C° 0.1 mm 1 mps 754 mmHg 72%
16:00 +29°C° 0.1 mm 1 mps 753 mmHg 75%
17:00 +29°C° 0.1 mm 1 mps 754 mmHg 76%
18:00 +28°C° 0.1 mm 1 mps 754 mmHg 78%
19:00 +28°C° 0.1 mm 1 mps 755 mmHg 79%
20:00 +25°C° 0.2 mm 0 mps 755 mmHg 82%
21:00 +25°C° 0.2 mm 0 mps 756 mmHg 85%
22:00 +24°C° 0.2 mm 0 mps 756 mmHg 88%
23:00 +24°C° 0.6 mm 0 mps 756 mmHg 90%

14 August, Friday

Time Temperature Precipitation Wind Pressure Humidity
00:00 +24°C° 0.6 mm 0 mps 756 mmHg 93%
01:00 +23°C° 0.6 mm 0 mps 756 mmHg 95%
02:00 +23°C° 0.1 mm 0 mps 755 mmHg 95%
03:00 +23°C° 0.1 mm 0 mps 755 mmHg 95%
04:00 +23°C° 0.1 mm 0 mps 754 mmHg 95%
05:00 +25°C° 1.1 mm 1 mps 755 mmHg 96%
06:00 +25°C° 1.1 mm 1 mps 755 mmHg 96%
07:00 +25°C° 1.1 mm 1 mps 756 mmHg 97%
08:00 +27°C° 0.1 mm 1 mps 756 mmHg 90%
09:00 +28°C° 0.1 mm 1 mps 756 mmHg 84%
10:00 +30°C° 0.1 mm 1 mps 756 mmHg 78%
11:00 +31°C° 0.8 mm 1 mps 756 mmHg 74%
12:00 +32°C° 0.8 mm 1 mps 755 mmHg 71%
13:00 +33°C° 0.8 mm 1 mps 754 mmHg 67%
14:00 +30°C° 2 mm 0 mps 753 mmHg 71%
15:00 +30°C° 2 mm 0 mps 753 mmHg 75%
16:00 +29°C° 2 mm 0 mps 752 mmHg 80%
17:00 +28°C° 0.4 mm 0 mps 753 mmHg 83%
18:00 +26°C° 0.4 mm 0 mps 753 mmHg 87%
19:00 +25°C° 0.4 mm 0 mps 754 mmHg 91%
20:00 +25°C° 0.1 mm 0 mps 755 mmHg 92%
21:00 +25°C° 0.1 mm 0 mps 755 mmHg 92%
22:00 +24°C° 0.1 mm 0 mps 756 mmHg 92%
23:00 +24°C° 0.6 mm 0 mps 755 mmHg 93%

15 August, Saturday

Time Temperature Precipitation Wind Pressure Humidity
00:00 +24°C° 0.6 mm 0 mps 755 mmHg 95%
01:00 +24°C° 0.6 mm 0 mps 755 mmHg 96%
02:00 +23°C° 1.2 mm 0 mps 755 mmHg 96%
03:00 +23°C° 1.2 mm 0 mps 754 mmHg 97%
04:00 +23°C° 1.2 mm 0 mps 754 mmHg 97%
05:00 +23°C° 2.2 mm 0 mps 755 mmHg 97%
06:00 +23°C° 2.2 mm 0 mps 755 mmHg 97%
07:00 +23°C° 2.2 mm 0 mps 755 mmHg 98%
08:00 +26°C° 2.1 mm 1 mps 756 mmHg 96%
09:00 +27°C° 2.1 mm 1 mps 756 mmHg 94%
10:00 +27°C° 2.1 mm 1 mps 756 mmHg 93%
11:00 +27°C° 2.3 mm 1 mps 756 mmHg 94%
12:00 +26°C° 2.3 mm 1 mps 755 mmHg 95%
13:00 +24°C° 2.3 mm 0 mps 755 mmHg 97%
14:00 +24°C° 1.4 mm 0 mps 755 mmHg 96%
15:00 +24°C° 1.4 mm 0 mps 754 mmHg 96%
16:00 +24°C° 1.4 mm 0 mps 754 mmHg 96%
17:00 +24°C° 0.2 mm 0 mps 755 mmHg 96%
18:00 +23°C° 0.2 mm 0 mps 755 mmHg 96%
19:00 +23°C° 0.2 mm 0 mps 756 mmHg 96%
20:00 +23°C° 0 mm 0 mps 756 mmHg 96%
21:00 +25°C° 0 mm 1 mps 756 mmHg 96%
22:00 +25°C° 0 mm 1 mps 757 mmHg 95%
23:00 +25°C° 0 mm 1 mps 756 mmHg 95%
Show more